,,,PA_Meas_PMT16A,,PR_Meas_QMR101_102,,RH_Meas_QMH101,,SR_Meas_QMS101,,TA_Meas_QMH101,,GenWind,,GenWind,
date,time,status,PA,status,PR,status,RH,status,SR,status,TA,status,DirAvg,status,SpdAvg,
2009-08-04, 00:00:04,VALID,1004.89,VALID,0,VALID,92.2179,VALID,0,VALID,25.3565,VALID,357,VALID,0.510156,
2009-08-04, 00:01:04,VALID,1004.86,VALID,0,VALID,92.2179,VALID,0.100563,VALID,25.3565,VALID,357,VALID,0.275,
2009-08-04, 00:02:04,VALID,1004.85,VALID,0,VALID,92.2561,VALID,0.100563,VALID,25.3779,VALID,357,VALID,0.189453,
2009-08-04, 00:03:04,VALID,1004.82,VALID,0,VALID,92.1874,VALID,0.100563,VALID,25.376,VALID,357,VALID,0.262109,
2009-08-04, 00:04:04,VALID,1004.8,VALID,0,VALID,92.1035,VALID,0,VALID,25.4169,VALID,356,VALID,0.315625,
2009-08-04, 00:05:04,VALID,1004.8,VALID,0,VALID,91.9356,VALID,0.100563,VALID,25.4558,VALID,344,VALID,0.469922,
2009-08-04, 00:06:04,VALID,1004.81,VALID,0,VALID,91.722,VALID,0.100563,VALID,25.4928,VALID,344,VALID,0.313672,
2009-08-04, 00:07:04,VALID,1004.78,VALID,0,VALID,91.4321,VALID,0,VALID,25.5318,VALID,344,VALID,0.499219,
2009-08-04, 00:08:04,VALID,1004.76,VALID,0,VALID,91.0736,VALID,0,VALID,25.6097,VALID,350,VALID,0.275781,
2009-08-04, 00:09:04,VALID,1004.76,VALID,0,VALID,90.776,VALID,0,VALID,25.6486,VALID,350,VALID,0.0617188,
2009-08-04, 00:10:04,VALID,1004.72,VALID,0,VALID,90.5472,VALID,0,VALID,25.6876,VALID,353,VALID,0.575781,
2009-08-04, 00:11:04,VALID,1004.7,VALID,0,VALID,90.2344,VALID,0,VALID,25.7265,VALID,355,VALID,0.571484,
2009-08-04, 00:12:04,VALID,1004.69,VALID,0,VALID,89.9521,VALID,0.100563,VALID,25.7655,VALID,356,VALID,0.429297,
2009-08-04, 00:13:04,VALID,1004.67,VALID,0,VALID,89.7156,VALID,0,VALID,25.8064,VALID,360,VALID,0.494531,
2009-08-04, 00:14:04,VALID,1004.67,VALID,0,VALID,89.4944,VALID,0,VALID,25.8668,VALID,347,VALID,0.471484,
2009-08-04, 00:15:04,VALID,1004.67,VALID,0,VALID,89.3876,VALID,0,VALID,25.8648,VALID,345,VALID,0.410937,
2009-08-04, 00:16:04,VALID,1004.65,VALID,0,VALID,89.2884,VALID,0,VALID,25.8863,VALID,345,VALID,0.469922,
2009-08-04, 00:17:04,VALID,1004.68,VALID,0,VALID,89.2579,VALID,0,VALID,25.8648,VALID,345,VALID,0.0308594,
2009-08-04, 00:18:04,VALID,1004.68,VALID,0,VALID,89.2198,VALID,0,VALID,25.8843,VALID,345,VALID,0,
2009-08-04, 00:19:04,VALID,1004.63,VALID,0,VALID,89.2045,VALID,0,VALID,25.8843,VALID,345,VALID,0.00664063,
2009-08-04, 00:20:04,VALID,1004.64,VALID,0,VALID,89.1892,VALID,0,VALID,25.9057,VALID,347,VALID,0.236328,
2009-08-04, 00:21:04,VALID,1004.59,VALID,0,VALID,89.113,VALID,0,VALID,25.8843,VALID,347,VALID,0.291406,
2009-08-04, 00:22:04,VALID,1004.59,VALID,0,VALID,89.0443,VALID,0,VALID,25.9447,VALID,347,VALID,0.0890625,
2009-08-04, 00:23:04,VALID,1004.56,VALID,0,VALID,88.9604,VALID,0,VALID,25.9447,VALID,347,VALID,0.208984,
2009-08-04, 00:24:04,VALID,1004.56,VALID,0,VALID,88.8002,VALID,0,VALID,25.9622,VALID,355,VALID,0.454297,
2009-08-04, 00:25:04,VALID,1004.53,VALID,0,VALID,88.6781,VALID,0,VALID,25.9836,VALID,355,VALID,0.588281,
2009-08-04, 00:26:04,VALID,1004.53,VALID,0,VALID,88.5255,VALID,0,VALID,26.0031,VALID,360,VALID,0.659375,
2009-08-04, 00:27:04,VALID,1004.52,VALID,0,VALID,88.3119,VALID,0,VALID,26.0206,VALID,358,VALID,0.408984,
2009-08-04, 00:28:04,VALID,1004.54,VALID,0,VALID,87.9915,VALID,0,VALID,26.0381,VALID,356,VALID,0.593359,
2009-08-04, 00:29:04,VALID,1004.48,VALID,0,VALID,87.7016,VALID,0.100563,VALID,26.0771,VALID,353,VALID,0.658984,
2009-08-04, 00:30:04,VALID,1004.46,VALID,0,VALID,87.549,VALID,0.100563,VALID,26.116,VALID,351,VALID,0.50625,
2009-08-04, 00:31:04,VALID,1004.48,VALID,0,VALID,87.488,VALID,0.100563,VALID,26.116,VALID,352,VALID,0.608984,
2009-08-04, 00:32:04,VALID,1004.49,VALID,0,VALID,87.4117,VALID,0,VALID,26.116,VALID,351,VALID,0.572266,
2009-08-04, 00:33:04,VALID,1004.47,VALID,0,VALID,87.4499,VALID,0.100563,VALID,26.1375,VALID,347,VALID,0.621484,
2009-08-04, 00:34:04,VALID,1004.44,VALID,0,VALID,87.3125,VALID,0,VALID,26.1375,VALID,345,VALID,0.389844,
2009-08-04, 00:35:04,VALID,1004.47,VALID,0,VALID,87.1981,VALID,0.100563,VALID,26.157,VALID,349,VALID,0.589063,
2009-08-04, 00:36:04,VALID,1004.43,VALID,0,VALID,87.221,VALID,0,VALID,26.155,VALID,349,VALID,0.512891,
2009-08-04, 00:37:04,VALID,1004.45,VALID,0,VALID,87.1218,VALID,0.100563,VALID,26.155,VALID,347,VALID,0.393359,
2009-08-04, 00:38:04,VALID,1004.46,VALID,0,VALID,87.3812,VALID,0.100563,VALID,26.155,VALID,347,VALID,0.459375,
2009-08-04, 00:39:04,VALID,1004.45,VALID,0,VALID,87.5567,VALID,0,VALID,26.116,VALID,347,VALID,0.397656,
2009-08-04, 00:40:04,VALID,1004.44,VALID,0,VALID,87.4727,VALID,0.100563,VALID,26.0966,VALID,342,VALID,0.450781,
2009-08-04, 00:41:04,VALID,1004.43,VALID,0,VALID,87.5109,VALID,0,VALID,26.1375,VALID,343,VALID,0.374609,
2009-08-04, 00:42:04,VALID,1004.41,VALID,0,VALID,87.4575,VALID,0,VALID,26.118,VALID,343,VALID,0.435156,
2009-08-04, 00:43:04,VALID,1004.39,VALID,0,VALID,87.3507,VALID,0,VALID,26.116,VALID,343,VALID,0,
2009-08-04, 00:44:04,VALID,1004.36,VALID,0,VALID,87.3965,VALID,0,VALID,26.157,VALID,343,VALID,0,
2009-08-04, 00:45:04,VALID,1004.3,VALID,0,VALID,87.3583,VALID,0,VALID,26.157,VALID,343,VALID,0.330859,
2009-08-04, 00:46:04,VALID,1004.31,VALID,0,VALID,87.3049,VALID,0.100563,VALID,26.1355,VALID,343,VALID,0.347656,
2009-08-04, 00:47:04,VALID,1004.27,VALID,0,VALID,87.3125,VALID,0,VALID,26.1355,VALID,326,VALID,0.399219,
2009-08-04, 00:48:04,VALID,1004.27,VALID,0,VALID,87.427,VALID,0,VALID,26.157,VALID,334,VALID,0.0785156,
2009-08-04, 00:49:04,VALID,1004.22,VALID,0,VALID,87.2134,VALID,0,VALID,26.1765,VALID,335,VALID,0.295703,
2009-08-04, 00:50:04,VALID,1004.22,VALID,0,VALID,87.1752,VALID,0,VALID,26.1745,VALID,345,VALID,0.7375,
2009-08-04, 00:51:04,VALID,1004.22,VALID,0,VALID,87.282,VALID,0,VALID,26.1959,VALID,341,VALID,0.417969,
2009-08-04, 00:52:04,VALID,1004.24,VALID,0,VALID,87.2134,VALID,0,VALID,26.1745,VALID,347,VALID,0.541016,
2009-08-04, 00:53:04,VALID,1004.22,VALID,0,VALID,87.2057,VALID,0,VALID,26.1765,VALID,339,VALID,0.324219,
2009-08-04, 00:54:04,VALID,1004.2,VALID,0,VALID,87.2515,VALID,0,VALID,26.1765,VALID,347,VALID,0.483203,
2009-08-04, 00:55:04,VALID,1004.23,VALID,0,VALID,87.2591,VALID,0,VALID,26.1355,VALID,349,VALID,0.261328,
2009-08-04, 00:56:04,VALID,1004.19,VALID,0,VALID,87.2896,VALID,0.100563,VALID,26.1765,VALID,353,VALID,0.23125,
2009-08-04, 00:57:04,VALID,1004.18,VALID,0,VALID,87.1447,VALID,0,VALID,26.157,VALID,351,VALID,0.919922,
2009-08-04, 00:58:04,VALID,1004.18,VALID,0,VALID,86.9769,VALID,0,VALID,26.1959,VALID,351,VALID,0.701172,
2009-08-04, 00:59:04,VALID,1004.17,VALID,0,VALID,86.9158,VALID,0,VALID,26.1959,VALID,345,VALID,0.487891,
2009-08-04, 01:00:04,VALID,1004.17,VALID,0,VALID,86.9006,VALID,0,VALID,26.194,VALID,348,VALID,0.440234,
2009-08-04, 01:01:04,VALID,1004.12,VALID,0,VALID,86.9158,VALID,0,VALID,26.1959,VALID,350,VALID,0.417188,
2009-08-04, 01:02:04,VALID,1004.12,VALID,0,VALID,87.0303,VALID,0,VALID,26.1959,VALID,350,VALID,0.230078,
2009-08-04, 01:03:04,VALID,1004.11,VALID,0,VALID,86.9616,VALID,0,VALID,26.1959,VALID,335,VALID,0.326562,
2009-08-04, 01:04:04,VALID,1004.11,VALID,0,VALID,87.1523,VALID,0,VALID,26.1959,VALID,335,VALID,0.325391,
2009-08-04, 01:05:04,VALID,1004.14,VALID,0,VALID,86.9921,VALID,0,VALID,26.1959,VALID,336,VALID,0.436719,
2009-08-04, 01:06:04,VALID,1004.13,VALID,0,VALID,86.9387,VALID,0,VALID,26.1959,VALID,340,VALID,0.495313,
2009-08-04, 01:07:04,VALID,1004.15,VALID,0,VALID,86.8624,VALID,0.100563,VALID,26.1959,VALID,359,VALID,0.29375,
2009-08-04, 01:08:04,VALID,1004.14,VALID,0,VALID,86.8014,VALID,0,VALID,26.1745,VALID,359,VALID,0.380859,
2009-08-04, 01:09:04,VALID,1004.16,VALID,0,VALID,86.7785,VALID,0,VALID,26.1959,VALID,359,VALID,0.252734,
2009-08-04, 01:10:04,VALID,1004.14,VALID,0,VALID,86.8929,VALID,0,VALID,26.194,VALID,359,VALID,0.00234375,
2009-08-04, 01:11:04,VALID,1004.1,VALID,0,VALID,86.954,VALID,0,VALID,26.1765,VALID,359,VALID,0,
2009-08-04, 01:12:04,VALID,1004.13,VALID,0,VALID,87.1828,VALID,0,VALID,26.157,VALID,359,VALID,0.0304688,
2009-08-04, 01:13:04,VALID,1004.15,VALID,0,VALID,87.4804,VALID,0,VALID,26.1375,VALID,359,VALID,0.157031,
2009-08-04, 01:14:04,VALID,1004.16,VALID,0,VALID,87.5948,VALID,0,VALID,26.0985,VALID,359,VALID,0.229687,
2009-08-04, 01:15:04,VALID,1004.16,VALID,0,VALID,87.7245,VALID,0,VALID,26.0596,VALID,359,VALID,0.349219,
2009-08-04, 01:16:04,VALID,1004.18,VALID,0,VALID,87.9534,VALID,0,VALID,25.9992,VALID,359,VALID,0.434375,
2009-08-04, 01:17:04,VALID,1004.19,VALID,0,VALID,88.1212,VALID,0,VALID,25.9817,VALID,359,VALID,0.527734,
2009-08-04, 01:18:04,VALID,1004.21,VALID,0,VALID,88.4111,VALID,0,VALID,25.9018,VALID,360,VALID,0.761719,
2009-08-04, 01:19:04,VALID,1004.23,VALID,0,VALID,88.4569,VALID,0,VALID,25.8629,VALID,331,VALID,0.680859,
2009-08-04, 01:20:04,VALID,1004.23,VALID,0,VALID,88.556,VALID,0,VALID,25.8648,VALID,343,VALID,0.564453,
2009-08-04, 01:21:04,VALID,1004.27,VALID,0,VALID,88.6323,VALID,0,VALID,25.8239,VALID,333,VALID,0.477734,
2009-08-04, 01:22:04,VALID,1004.26,VALID,0,VALID,88.762,VALID,0,VALID,25.8044,VALID,332,VALID,0.442578,
2009-08-04, 01:23:04,VALID,1004.24,VALID,0,VALID,88.7391,VALID,0,VALID,25.7869,VALID,334,VALID,0.3375,
2009-08-04, 01:24:04,VALID,1004.27,VALID,0,VALID,88.9451,VALID,0,VALID,25.746,VALID,334,VALID,0.267578,
2009-08-04, 01:25:04,VALID,1004.27,VALID,0,VALID,89.0214,VALID,0,VALID,25.7265,VALID,332,VALID,0.382031,
2009-08-04, 01:26:04,VALID,1004.29,VALID,0,VALID,88.8002,VALID,0,VALID,25.7285,VALID,332,VALID,0.201953,
2009-08-04, 01:27:04,VALID,1004.25,VALID,0,VALID,88.5255,VALID,0,VALID,25.748,VALID,342,VALID,0.591406,
2009-08-04, 01:28:04,VALID,1004.32,VALID,0,VALID,88.1822,VALID,0,VALID,25.7655,VALID,360,VALID,0.451953,
2009-08-04, 01:29:04,VALID,1004.3,VALID,0,VALID,87.8008,VALID,0,VALID,25.8239,VALID,7,VALID,0.448438,
2009-08-04, 01:30:04,VALID,1004.28,VALID,0,VALID,87.6711,VALID,0,VALID,25.8629,VALID,359,VALID,0.451172,
2009-08-04, 01:31:04,VALID,1004.28,VALID,0,VALID,87.3736,VALID,0,VALID,25.9018,VALID,330,VALID,0.428125,
2009-08-04, 01:32:04,VALID,1004.28,VALID,0,VALID,87.0226,VALID,0,VALID,25.9427,VALID,344,VALID,0.507031,
2009-08-04, 01:33:04,VALID,1004.22,VALID,0,VALID,86.7022,VALID,0,VALID,25.9797,VALID,351,VALID,0.495313,
2009-08-04, 01:34:04,VALID,1004.22,VALID,0,VALID,86.5039,VALID,0,VALID,26.0187,VALID,344,VALID,0.525781,
2009-08-04, 01:35:04,VALID,1004.21,VALID,0,VALID,86.3589,VALID,0,VALID,26.0381,VALID,347,VALID,0.525,
2009-08-04, 01:36:04,VALID,1004.17,VALID,0,VALID,86.0309,VALID,0,VALID,26.0771,VALID,346,VALID,0.628516,
2009-08-04, 01:37:04,VALID,1004.18,VALID,0,VALID,86.0614,VALID,0,VALID,26.0966,VALID,335,VALID,0.429688,
2009-08-04, 01:38:04,VALID,1004.16,VALID,0,VALID,85.9393,VALID,0,VALID,26.116,VALID,345,VALID,0.678125,
2009-08-04, 01:39:04,VALID,1004.17,VALID,0,VALID,86.0233,VALID,0,VALID,26.118,VALID,2,VALID,0.381641,
2009-08-04, 01:40:04,VALID,1004.18,VALID,0,VALID,86.0004,VALID,0,VALID,26.0966,VALID,357,VALID,0.530469,
2009-08-04, 01:41:04,VALID,1004.18,VALID,0,VALID,86.0385,VALID,0,VALID,26.118,VALID,357,VALID,0.575,
2009-08-04, 01:42:04,VALID,1004.16,VALID,0,VALID,85.8859,VALID,0,VALID,26.118,VALID,334,VALID,0.509766,
2009-08-04, 01:43:04,VALID,1004.16,VALID,0,VALID,85.8478,VALID,0,VALID,26.116,VALID,343,VALID,0.305469,
2009-08-04, 01:44:04,VALID,1004.17,VALID,0,VALID,85.7868,VALID,0,VALID,26.118,VALID,336,VALID,0.555078,
2009-08-04, 01:45:04,VALID,1004.15,VALID,0,VALID,85.802,VALID,0,VALID,26.1375,VALID,356,VALID,0.558594,
2009-08-04, 01:46:04,VALID,1004.13,VALID,0,VALID,85.7105,VALID,0,VALID,26.157,VALID,349,VALID,0.5625,
2009-08-04, 01:47:04,VALID,1004.12,VALID,0,VALID,85.5732,VALID,0,VALID,26.155,VALID,344,VALID,0.576172,
2009-08-04, 01:48:04,VALID,1004.08,VALID,0,VALID,85.5884,VALID,0,VALID,26.155,VALID,347,VALID,0.488672,
2009-08-04, 01:49:04,VALID,1004.09,VALID,0,VALID,85.596,VALID,0,VALID,26.1765,VALID,350,VALID,0.685938,
2009-08-04, 01:50:04,VALID,1004.07,VALID,0,VALID,85.5732,VALID,0,VALID,26.155,VALID,350,VALID,0.304297,
2009-08-04, 01:51:04,VALID,1004.06,VALID,0,VALID,85.5579,VALID,0,VALID,26.155,VALID,339,VALID,0.340625,
2009-08-04, 01:52:04,VALID,1004.07,VALID,0,VALID,85.5045,VALID,0,VALID,26.155,VALID,327,VALID,0.305859,
2009-08-04, 01:53:04,VALID,1004.07,VALID,0,VALID,85.4511,VALID,0.100563,VALID,26.1745,VALID,299,VALID,0.418359,
2009-08-04, 01:54:04,VALID,1004.08,VALID,0,VALID,85.329,VALID,0,VALID,26.2154,VALID,339,VALID,0.357422,
2009-08-04, 01:55:04,VALID,1004.08,VALID,0,VALID,85.3977,VALID,0,VALID,26.1959,VALID,339,VALID,0.267188,
2009-08-04, 01:56:04,VALID,1004.04,VALID,0,VALID,85.4129,VALID,0,VALID,26.194,VALID,340,VALID,0.277344,
2009-08-04, 01:57:04,VALID,1004.03,VALID,0,VALID,85.3748,VALID,0.100563,VALID,26.1745,VALID,342,VALID,0.596484,
2009-08-04, 01:58:04,VALID,1004.04,VALID,0,VALID,85.3367,VALID,0.100563,VALID,26.194,VALID,353,VALID,0.482031,
2009-08-04, 01:59:04,VALID,1003.99,VALID,0,VALID,85.4206,VALID,0,VALID,26.1959,VALID,349,VALID,0.388672,
2009-08-04, 02:00:04,VALID,1003.96,VALID,0,VALID,85.4282,VALID,0,VALID,26.1765,VALID,349,VALID,0.410156,
2009-08-04, 02:01:04,VALID,1003.95,VALID,0,VALID,85.4969,VALID,0,VALID,26.1355,VALID,6,VALID,0.357422,
2009-08-04, 02:02:04,VALID,1003.96,VALID,0,VALID,85.5045,VALID,0,VALID,26.1375,VALID,358,VALID,0.167969,
2009-08-04, 02:03:04,VALID,1003.93,VALID,0,VALID,85.6571,VALID,0,VALID,26.116,VALID,359,VALID,0,
2009-08-04, 02:04:04,VALID,1003.95,VALID,0,VALID,85.7562,VALID,0,VALID,26.118,VALID,359,VALID,0.215234,
2009-08-04, 02:05:04,VALID,1003.94,VALID,0,VALID,85.8325,VALID,0,VALID,26.0771,VALID,359,VALID,0.119922,
2009-08-04, 02:06:04,VALID,1003.91,VALID,0,VALID,85.8554,VALID,0.100563,VALID,26.0771,VALID,359,VALID,0.0910156,
2009-08-04, 02:07:04,VALID,1003.93,VALID,0,VALID,85.8249,VALID,0,VALID,26.0791,VALID,359,VALID,0.147266,
2009-08-04, 02:08:04,VALID,1003.89,VALID,0,VALID,85.68,VALID,0,VALID,26.0576,VALID,352,VALID,0.560938,
2009-08-04, 02:09:04,VALID,1003.87,VALID,0,VALID,85.6342,VALID,0,VALID,26.0576,VALID,343,VALID,0.221875,
2009-08-04, 02:10:04,VALID,1003.85,VALID,0,VALID,85.5732,VALID,0,VALID,26.0771,VALID,343,VALID,0.446875,
2009-08-04, 02:11:04,VALID,1003.82,VALID,0,VALID,85.6494,VALID,0.100563,VALID,26.0771,VALID,343,VALID,0.341797,
2009-08-04, 02:12:04,VALID,1003.84,VALID,0,VALID,85.5732,VALID,0,VALID,26.0985,VALID,343,VALID,0.337109,
2009-08-04, 02:13:04,VALID,1003.81,VALID,0,VALID,85.6494,VALID,0,VALID,26.0985,VALID,343,VALID,0.46875,
2009-08-04, 02:14:04,VALID,1003.79,VALID,0,VALID,86.0843,VALID,0,VALID,26.0791,VALID,343,VALID,0.310156,
2009-08-04, 02:15:04,VALID,1003.8,VALID,0,VALID,86.3132,VALID,0,VALID,25.9797,VALID,343,VALID,0.280469,
2009-08-04, 02:16:04,VALID,1003.77,VALID,0,VALID,86.7556,VALID,0,VALID,25.9622,VALID,343,VALID,0.244531,
2009-08-04, 02:17:04,VALID,1003.78,VALID,0,VALID,87.2973,VALID,0,VALID,25.8843,VALID,343,VALID,0.29375,
2009-08-04, 02:18:04,VALID,1003.76,VALID,0,VALID,87.6406,VALID,0,VALID,25.8064,VALID,343,VALID,0.317578,
2009-08-04, 02:19:04,VALID,1003.77,VALID,0,VALID,87.9381,VALID,0.100563,VALID,25.748,VALID,343,VALID,0.339453,
2009-08-04, 02:20:04,VALID,1003.74,VALID,0,VALID,88.228,VALID,0,VALID,25.6895,VALID,343,VALID,0.266016,
2009-08-04, 02:21:04,VALID,1003.74,VALID,0,VALID,88.3653,VALID,0,VALID,25.6116,VALID,343,VALID,0.290625,
2009-08-04, 02:22:04,VALID,1003.74,VALID,0,VALID,88.4492,VALID,0,VALID,25.5513,VALID,343,VALID,0.236328,
2009-08-04, 02:23:04,VALID,1003.73,VALID,0,VALID,88.762,VALID,0,VALID,25.5318,VALID,343,VALID,0.275781,
2009-08-04, 02:24:04,VALID,1003.74,VALID,0,VALID,88.9375,VALID,0,VALID,25.5337,VALID,343,VALID,0.278906,
2009-08-04, 02:25:04,VALID,1003.71,VALID,0,VALID,89.0367,VALID,0,VALID,25.4948,VALID,343,VALID,0.223438,
2009-08-04, 02:26:04,VALID,1003.7,VALID,0,VALID,89.1664,VALID,0,VALID,25.4539,VALID,343,VALID,0.277344,
2009-08-04, 02:27:04,VALID,1003.68,VALID,0,VALID,89.4105,VALID,0,VALID,25.4344,VALID,343,VALID,0.312891,
2009-08-04, 02:28:04,VALID,1003.63,VALID,0,VALID,89.6546,VALID,0,VALID,25.4363,VALID,343,VALID,0.33125,
2009-08-04, 02:29:04,VALID,1003.63,VALID,0,VALID,89.8758,VALID,0,VALID,25.3565,VALID,343,VALID,0.366016,
2009-08-04, 02:30:04,VALID,1003.59,VALID,0,VALID,90.1276,VALID,0,VALID,25.339,VALID,343,VALID,0.334375,
2009-08-04, 02:31:04,VALID,1003.6,VALID,0,VALID,90.3946,VALID,0,VALID,25.2806,VALID,343,VALID,0.239063,
2009-08-04, 02:32:04,VALID,1003.59,VALID,0,VALID,90.5701,VALID,0,VALID,25.2416,VALID,343,VALID,0.234766,
2009-08-04, 02:33:04,VALID,1003.58,VALID,0,VALID,90.7303,VALID,0,VALID,25.2027,VALID,343,VALID,0.255469,
2009-08-04, 02:34:04,VALID,1003.54,VALID,0,VALID,90.8447,VALID,0,VALID,25.1637,VALID,343,VALID,0.391797,
2009-08-04, 02:35:04,VALID,1003.55,VALID,0,VALID,90.982,VALID,0,VALID,25.1229,VALID,343,VALID,0.366406,
2009-08-04, 02:36:04,VALID,1003.54,VALID,0,VALID,91.1422,VALID,0,VALID,25.1053,VALID,343,VALID,0.49375,
2009-08-04, 02:37:04,VALID,1003.53,VALID,0,VALID,91.2643,VALID,0,VALID,25.0858,VALID,349,VALID,0.595312,
2009-08-04, 02:38:04,VALID,1003.52,VALID,0,VALID,91.4321,VALID,0,VALID,25.0663,VALID,352,VALID,0.537109,
2009-08-04, 02:39:04,VALID,1003.51,VALID,0,VALID,91.5389,VALID,0,VALID,25.0255,VALID,352,VALID,0.401172,
2009-08-04, 02:40:04,VALID,1003.5,VALID,0,VALID,91.6076,VALID,0,VALID,25.0274,VALID,352,VALID,0.285937,
2009-08-04, 02:41:04,VALID,1003.52,VALID,0,VALID,91.6915,VALID,0.100563,VALID,24.9885,VALID,352,VALID,0.324609,
2009-08-04, 02:42:04,VALID,1003.51,VALID,0,VALID,91.7602,VALID,0,VALID,24.969,VALID,352,VALID,0.319531,
2009-08-04, 02:43:04,VALID,1003.49,VALID,0,VALID,91.8594,VALID,0,VALID,24.93,VALID,352,VALID,0.348437,
2009-08-04, 02:44:04,VALID,1003.47,VALID,0,VALID,91.9356,VALID,0,VALID,24.93,VALID,352,VALID,0.283984,
2009-08-04, 02:45:04,VALID,1003.45,VALID,0,VALID,92.0119,VALID,0,VALID,24.8892,VALID,352,VALID,0.497656,
2009-08-04, 02:46:04,VALID,1003.43,VALID,0,VALID,92.0882,VALID,0,VALID,24.8503,VALID,352,VALID,0.376953,
2009-08-04, 02:47:04,VALID,1003.4,VALID,0,VALID,92.1721,VALID,0,VALID,24.8503,VALID,352,VALID,0.360938,
2009-08-04, 02:48:04,VALID,1003.42,VALID,0,VALID,92.2484,VALID,0,VALID,24.8716,VALID,352,VALID,0.390625,
2009-08-04, 02:49:04,VALID,1003.43,VALID,0,VALID,92.3171,VALID,0,VALID,24.8113,VALID,352,VALID,0.396484,
2009-08-04, 02:50:04,VALID,1003.47,VALID,0,VALID,92.3705,VALID,0,VALID,24.8113,VALID,352,VALID,0.358203,
2009-08-04, 02:51:04,VALID,1003.49,VALID,0,VALID,92.3705,VALID,0,VALID,24.7919,VALID,352,VALID,0.251172,
2009-08-04, 02:52:04,VALID,1003.49,VALID,0,VALID,92.4315,VALID,0,VALID,24.7919,VALID,352,VALID,0.254687,
2009-08-04, 02:53:04,VALID,1003.5,VALID,0,VALID,92.4468,VALID,0,VALID,24.7937,VALID,352,VALID,0.451953,
2009-08-04, 02:54:04,VALID,1003.51,VALID,0,VALID,92.5078,VALID,0,VALID,24.7724,VALID,352,VALID,0.394922,
2009-08-04, 02:55:04,VALID,1003.48,VALID,0,VALID,92.5307,VALID,0,VALID,24.7937,VALID,352,VALID,0.357812,
2009-08-04, 02:56:04,VALID,1003.49,VALID,0,VALID,92.5536,VALID,0,VALID,24.7743,VALID,352,VALID,0.445703,
2009-08-04, 02:57:04,VALID,1003.49,VALID,0,VALID,92.5765,VALID,0,VALID,24.7353,VALID,352,VALID,0.555078,
2009-08-04, 02:58:04,VALID,1003.5,VALID,0,VALID,92.6604,VALID,0,VALID,24.7548,VALID,352,VALID,0.494531,
2009-08-04, 02:59:04,VALID,1003.5,VALID,0,VALID,92.7672,VALID,0,VALID,24.7548,VALID,352,VALID,0.532422,
2009-08-04, 03:00:04,VALID,1003.51,VALID,0,VALID,92.813,VALID,0,VALID,24.714,VALID,352,VALID,0.408203,
2009-08-04, 03:01:04,VALID,1003.51,VALID,0,VALID,92.8587,VALID,0,VALID,24.7548,VALID,352,VALID,0.250781,
2009-08-04, 03:02:04,VALID,1003.54,VALID,0,VALID,92.935,VALID,0,VALID,24.7529,VALID,352,VALID,0.0109375,
2009-08-04, 03:03:04,VALID,1003.55,VALID,0,VALID,92.8892,VALID,0,VALID,24.7529,VALID,352,VALID,0.217969,
2009-08-04, 03:04:04,VALID,1003.54,VALID,0,VALID,92.7748,VALID,0,VALID,24.8132,VALID,352,VALID,0.276172,
2009-08-04, 03:05:04,VALID,1003.56,VALID,0,VALID,92.6604,VALID,0.100563,VALID,24.7529,VALID,352,VALID,0.489062,
2009-08-04, 03:06:04,VALID,1003.55,VALID,0,VALID,92.5993,VALID,0,VALID,24.7335,VALID,352,VALID,0.426953,
2009-08-04, 03:07:04,VALID,1003.59,VALID,0,VALID,92.5765,VALID,0,VALID,24.6945,VALID,352,VALID,0.373047,
2009-08-04, 03:08:04,VALID,1003.55,VALID,0,VALID,92.6909,VALID,0,VALID,24.675,VALID,352,VALID,0.466406,
2009-08-04, 03:09:04,VALID,1003.54,VALID,0,VALID,92.7977,VALID,0,VALID,24.6769,VALID,352,VALID,0.432813,
2009-08-04, 03:10:04,VALID,1003.52,VALID,0,VALID,92.8816,VALID,0,VALID,24.6556,VALID,352,VALID,0.528906,
2009-08-04, 03:11:04,VALID,1003.51,VALID,0,VALID,92.9655,VALID,0,VALID,24.6342,VALID,352,VALID,0.506641,
2009-08-04, 03:12:04,VALID,1003.48,VALID,0,VALID,93.1029,VALID,0.100563,VALID,24.6964,VALID,352,VALID,0.582812,
2009-08-04, 03:13:04,VALID,1003.5,VALID,0,VALID,93.0342,VALID,0,VALID,24.6945,VALID,356,VALID,0.729297,
2009-08-04, 03:14:04,VALID,1003.46,VALID,0,VALID,92.8816,VALID,0,VALID,24.6945,VALID,357,VALID,0.587109,
2009-08-04, 03:15:04,VALID,1003.43,VALID,0,VALID,92.9198,VALID,0,VALID,24.6945,VALID,352,VALID,0.535937,
2009-08-04, 03:16:04,VALID,1003.43,VALID,0,VALID,92.874,VALID,0,VALID,24.6926,VALID,352,VALID,0.373047,
2009-08-04, 03:17:04,VALID,1003.42,VALID,0,VALID,92.9121,VALID,0,VALID,24.7335,VALID,346,VALID,0.494531,
2009-08-04, 03:18:04,VALID,1003.42,VALID,0,VALID,92.9274,VALID,0.100563,VALID,24.7316,VALID,346,VALID,0.426953,
2009-08-04, 03:19:04,VALID,1003.46,VALID,0,VALID,92.8587,VALID,0,VALID,24.7919,VALID,345,VALID,0.212891,
2009-08-04, 03:20:04,VALID,1003.47,VALID,0,VALID,92.7901,VALID,0,VALID,24.8308,VALID,345,VALID,0.496094,
2009-08-04, 03:21:04,VALID,1003.47,VALID,0,VALID,92.668,VALID,0.100563,VALID,24.8697,VALID,345,VALID,0.0195313,
2009-08-04, 03:22:04,VALID,1003.45,VALID,0,VALID,92.4925,VALID,0,VALID,24.9087,VALID,345,VALID,0.282031,
2009-08-04, 03:23:04,VALID,1003.48,VALID,0,VALID,92.2789,VALID,0,VALID,24.9087,VALID,345,VALID,0.130078,
2009-08-04, 03:24:04,VALID,1003.46,VALID,0,VALID,92.0196,VALID,0.100563,VALID,24.9282,VALID,345,VALID,0.603125,
2009-08-04, 03:25:04,VALID,1003.41,VALID,0,VALID,91.8594,VALID,0,VALID,24.9087,VALID,345,VALID,0.412109,
2009-08-04, 03:26:04,VALID,1003.39,VALID,0,VALID,91.8517,VALID,0.100563,VALID,24.9495,VALID,345,VALID,0.516406,
2009-08-04, 03:27:04,VALID,1003.37,VALID,0,VALID,91.7754,VALID,0,VALID,24.9106,VALID,345,VALID,0.427344,
2009-08-04, 03:28:04,VALID,1003.35,VALID,0,VALID,91.7831,VALID,0,VALID,24.8522,VALID,345,VALID,0.439453,
2009-08-04, 03:29:04,VALID,1003.31,VALID,0,VALID,91.8212,VALID,0,VALID,24.7919,VALID,345,VALID,0.201172,
2009-08-04, 03:30:04,VALID,1003.31,VALID,0,VALID,91.9814,VALID,0,VALID,24.7937,VALID,345,VALID,0.342969,
2009-08-04, 03:31:04,VALID,1003.31,VALID,0,VALID,91.9433,VALID,0,VALID,24.7548,VALID,348,VALID,0.548047,
2009-08-04, 03:32:04,VALID,1003.36,VALID,0,VALID,92.0958,VALID,0,VALID,24.7335,VALID,357,VALID,0.398828,
2009-08-04, 03:33:04,VALID,1003.39,VALID,0,VALID,92.2561,VALID,0,VALID,24.7548,VALID,357,VALID,0.172266,
2009-08-04, 03:34:04,VALID,1003.38,VALID,0,VALID,92.1798,VALID,0,VALID,24.7335,VALID,357,VALID,0.153906,
2009-08-04, 03:35:04,VALID,1003.38,VALID,0,VALID,92.2027,VALID,0,VALID,24.7159,VALID,357,VALID,0,
2009-08-04, 03:36:04,VALID,1003.39,VALID,0,VALID,92.1721,VALID,0,VALID,24.7159,VALID,357,VALID,0,
2009-08-04, 03:37:04,VALID,1003.39,VALID,0,VALID,92.1035,VALID,0,VALID,24.6556,VALID,357,VALID,0,
2009-08-04, 03:38:04,VALID,1003.4,VALID,0,VALID,92.2027,VALID,0,VALID,24.6361,VALID,357,VALID,0,
2009-08-04, 03:39:04,VALID,1003.44,VALID,0,VALID,92.2789,VALID,0,VALID,24.638,VALID,357,VALID,0,
2009-08-04, 03:40:04,VALID,1003.44,VALID,0,VALID,92.3781,VALID,0,VALID,24.599,VALID,357,VALID,0,
2009-08-04, 03:41:04,VALID,1003.46,VALID,0,VALID,92.4773,VALID,0,VALID,24.599,VALID,357,VALID,0,
2009-08-04, 03:42:04,VALID,1003.47,VALID,0,VALID,92.546,VALID,0,VALID,24.599,VALID,357,VALID,0,
2009-08-04, 03:43:04,VALID,1003.47,VALID,0,VALID,92.5688,VALID,0.100563,VALID,24.5582,VALID,357,VALID,0,